Regional Weather Roundup
Issued by NWS

Home | Current Version | Previous Version | Graphics & Text | Print | Product List | Glossary On
Versions: 1 2 3 4 5 6 7 8 9 10 11 12 13 14 15 16 17 18 19 20 21 22 23 24 25 26 27 28 29 30 31 32 33 34 35 36 37 38 39 40 41 42 43 44 45 46 47 48 49 50
000
ASUS45 KABQ 191710
RWRNM
NEW MEXICO REGIONAL WEATHER ROUNDUP
NATIONAL WEATHER SERVICE ALBUQUERQUE NM
1000 AM MST FRI JAN 19 2018

NOTE: "FAIR" MEANS FEW OR NO CLOUDS BELOW 12,000 FEET AGL WITH NO
       SIGNIFICANT WEATHER OR OBSTRUCTIONS TO VISION.

      THIS PRODUCT IS RELEASED AS TWO VERSIONS.  ONE VERSION NEAR
      THE TOP OF THE HOUR CONTAINING PRELIMINARY DATA FROM ALBUQUERQUE
      AND OTHER STATIONS.  A FINAL VERSION WITH ADDITIONAL DATA IS
      ISSUED ABOUT 10 MINUTES AFTER THE HOUR.

NMZ501-503-504-510>518-191800-
NORTHWEST PLATEAU/NORTHCENTRAL MOUNTAINS

CITY           SKY/WX    TMP DP  RH WIND       PRES   REMARKS
FARMINGTON     FAIR      32  18  56 E7        30.13F WCI  26
LOS ALAMOS     FAIR      42  12  29 S3        30.14S
SANTA FE       FAIR      38  14  37 CALM      30.13R
TAOS           FAIR      32   9  38 N3        30.16S
ANGEL FIRE     FAIR      50   7  17 SW14      30.13S

$$
NMZ402-403-502-505>509-191800-
WESTCENTRAL MOUNTAINS/SOUTHWEST MOUNTAINS

CITY           SKY/WX    TMP DP  RH WIND       PRES   REMARKS
GALLUP         FAIR      32  17  54 CALM      30.16S
GRANTS         FAIR      31  13  46 NW10G16   30.19F WCI  22
SILVER CITY    FAIR      51  18  26 W12       30.17S

$$
NMZ407-409-411-412-191800-
SOUTHERN DESERTS

CITY           SKY/WX    TMP DP  RH WIND       PRES   REMARKS
DEMING         FAIR      42  14  32 CALM      30.18S
LAS CRUCES     FAIR      45  16  31 SE3       30.19S
HOLLOMAN AFB   FAIR      40  14  34 SE5       30.21S
ALAMOGORDO     FAIR      37  12  35 SE3       30.19S
T OR C         FAIR      43  13  29 CALM      30.16S

$$
NMZ519>523-191800-
CENTRAL VALLEYS/CENTRAL HIGHLANDS

CITY           SKY/WX    TMP DP  RH WIND       PRES   REMARKS
ALBUQUERQUE    PTSUNNY   36  12  37 SW6       30.17R WCI  31
DOUBLE EAGLE   PTSUNNY   41  16  36 S3        30.16S
MORIARTY ARPT  FAIR      46  16  29 CALM      30.13S
CLINES CORNERS FAIR      42  13  30 W29G36    30.08S
BELEN          FAIR      40  12  31 S6        30.17F
SOCORRO        FAIR      36  10  33 S5        30.18F WCI  32

$$
NMZ524>526-539-540-191800-
SOUTHCENTRAL MOUNTAINS

CITY           SKY/WX    TMP DP  RH WIND       PRES   REMARKS
RUIDOSO        FAIR      45   7  21 N8        30.14S

$$
NMZ527>531-191800-
NORTHEAST HIGHLANDS/NORTHEAST PLAINS

CITY           SKY/WX    TMP DP  RH WIND       PRES   REMARKS
LAS VEGAS      FAIR      57  12  17 N7        30.02S
RATON          FAIR      38  11  32 NE7       29.97S WCI  33
CLAYTON        FAIR      64   8  11 SW13      29.88R

$$
NMZ532>537-191800-
EASTCENTRAL PLAINS

CITY           SKY/WX    TMP DP  RH WIND       PRES   REMARKS
TUCUMCARI      FAIR      50  16  25 W13       29.92S
CANNON AFB     FAIR      52  15  23 W20       29.98F
CLOVIS AIRPORT FAIR      53  15  22 W21       29.98S

$$
NMZ028-029-538-191800-
SOUTHEAST PLAINS

CITY           SKY/WX    TMP DP  RH WIND       PRES   REMARKS
ROSWELL        FAIR      40  13  33 VRB3      30.03F
ARTESIA        FAIR      45  18  33 SE7       30.05F
CARLSBAD       FAIR      40  18  41 E5        30.06S
HOBBS          SUNNY     50  14  23 SW12      30.06S


$$




USA.gov is the U.S. government's official web portal to all federal, state and local government web resources and services.